Tracking 29892 objects as of 21-Nov-2024
HD Live streaming from Space Station
objects crossing your sky now

STARLINK-3539

Track STARLINK-3539 now!
10-day predictions
STARLINK-3539 is classified as:


NORAD ID: 51853
Int'l Code: 2022-022B
Perigee: 545.9 km
Apogee: 547.8 km
Inclination: 53.2 °
Period: 95.4 minutes
Semi major axis: 6917 km
RCS: Unknown
Launch date: March 3, 2022
Source: United States (US)
Launch site: AIR FORCE EASTERN TEST RANGE (AFETR)
Your satellite tracking list
Your tracking list is empty




NASA's NSSDC Master Catalog

Two Line Element Set (TLE):
1 51853U 22022B   24325.47436156  .00000623  00000-0  57195-4 0  9994
2 51853  53.2173 347.5708 0001327 111.8840 248.2293 15.08847404151373
Source of the keplerian elements: AFSPC